Regional Weather Roundup
Issued by NWS

Home | Current Version | Previous Version | Graphics & Text | Print | Product List | Glossary On
Versions: 1 2 3 4 5 6 7 8 9 10 11 12 13 14 15 16 17 18 19 20 21 22 23 24 25 26 27 28 29 30 31 32 33 34 35 36 37 38 39 40 41 42 43 44 45 46 47 48 49 50
054
ASUS45 KCYS 190710
RWRWY

WYOMING REGIONAL WEATHER ROUNDUP
NATIONAL WEATHER SERVICE CHEYENNE WY
100 AM MDT TUE SEP 19 2017

NOTE:  "FAIR" INDICATES FEW OR NO CLOUDS BELOW 12,000 FEET
WITH NO SIGNIFICANT WEATHER AND/OR OBSTRUCTIONS TO VISIBILITY.

WYZ001-190800-
YELLOWSTONE NATIONAL PARK

CITY           SKY/WX    TMP DP  RH WIND       PRES   REMARKS
LK YELLOWSTONE   N/A     37  37 100 CALM      29.79F
W YELLOWSTONE  NOT AVBL

$$
WYZ002>013-054>058-071-098>099-190800-
NORTHERN WYOMING

CITY           SKY/WX    TMP DP  RH WIND       PRES   REMARKS
JACKSON        CLOUDY    42  40  92 W12       29.79F
CODY           FAIR      54  38  54 VRB6      29.69F
GREYBULL       HVY RAIN  53  50  89 N12       29.71R FOG
WORLAND        LGT RAIN  57  45  64 N23G35    29.67R
SHERIDAN       MOCLDY    62  41  46 NW17G23   29.58F
BUFFALO        FAIR      59  35  40 N13       29.65R
GILLETTE       FAIR      62  35  36 S13       29.60F
HULETT         FAIR      70  36  28 S15G21    29.61F
NEWCASTLE      FAIR      63  34  34 SE13G22   29.68F

$$
WYZ014>020-022>026-101>103-190800-
CENTRAL WYOMING

CITY           SKY/WX    TMP DP  RH WIND       PRES   REMARKS
BIG PINEY      RAIN      43  41  93 NE8       29.86S
PINEDALE       LGT RAIN  41  39  93 NW10      29.87S
DUBOIS         RAIN      37  36  93 NW7       29.82F WCI  32
LANDER           N/A    N/A N/A N/A MISG      29.71R
RIVERTON       MOCLDY    53  40  61 NW28G36   29.71S
CASPER         FAIR      65  31  28 S16       29.69F
DOUGLAS        FAIR      62  31  31 S10       29.72F

$$
WYZ021-027>030-104>119-190800-
SOUTHERN WYOMING

CITY           SKY/WX    TMP DP  RH WIND       PRES   REMARKS
EVANSTON       CLOUDY    48  44  86 NW13      29.86F
KEMMERER       DRIZZLE   41  39  93 N13       29.86F
FORT BRIDGER   FAIR      51  45  80 NW10G21   29.86F
ROCK SPRINGS   FAIR      53  39  59 NW12      29.83R
DIXON          FAIR      63  25  23 S16G23    29.89S
RAWLINS        FAIR      59  31  34 S14G22    29.81
SARATOGA       FAIR      61  27  27 S15       29.87S
LARAMIE        FAIR      51  25  36 S14       29.89F
CHEYENNE       FAIR      55  31  39 SW5       29.84F
TORRINGTON     FAIR      60  40  47 SE8       29.72F
PINE BLUFFS    FAIR      59  37  44 SE21G26   29.80F

$$




USA.gov is the U.S. government's official web portal to all federal, state and local government web resources and services.